Weather observations for the past three days for
Buckland, Buckland Airport
Metric (Imperial)
Date Time (akdt) Wind (kph) Vis. (km) Weather Sky Cond. Temperature (ºC) Relative Humidity Wind Chill (°C) Heat Index (°C) Pressure Precipitation (cm)
Air Dwpt 6 hour altimeter (cm) sea level (mb) 1 hr 3 hr 6 hr
Max. Min.
16 03:56 Calm 16.09 Fair CLR 6.1 4.4 16.7 6.1 89% 76.81 1024.2
16 02:56 NW 11 16.09 Fair CLR 6.7 3.9 83% 5 76.81 1024.2
16 01:56 NW 9 16.09 Fair CLR 7.8 5 83% 6 76.81 1024.1
16 00:56 NW 13 16.09 Fair CLR 11.1 5.6 69% 76.78 1023.9
15 23:56 NW 19 16.09 Fair CLR 14.4 8.3 67% 76.76 1023.6
15 21:56 N 9 16.09 Fair CLR 16.7 6.1 18.3 16.7 50% 76.73 1023.2
15 20:56 N 11 16.09 Fair CLR 17.8 5.6 45% 76.73 1023.2
15 19:56 N 17 16.09 Fair CLR 17.8 5 43% 76.73 1023.3
15 18:56 N 15 16.09 Fair CLR 17.8 3.9 40% 76.76 1023.6
15 17:56 N 17 16.09 Fair CLR 17.2 5 45% 76.81 1024.0
15 16:56 N 17 16.09 Fair CLR 17.2 5.6 47% 76.81 1024.2
15 15:56 N 17 16.09 Fair CLR 16.7 5 16.7 10 46% 76.84 1024.4
15 14:56 Calm 16.09 Fair CLR 16.1 5 48% 76.84 1024.7
15 13:56 N 11 16.09 Fair CLR 15.6 5 50% 76.89 1025.0
15 12:56 N 13 16.09 Fair CLR 14.4 4.4 51% 76.89 1025.2
15 11:56 NW 9 16.09 Fair CLR 13.3 4.4 55% 76.91 1025.5
15 10:56 Vrbl 6 16.09 Fair CLR 11.7 3.9 59% 76.94 1025.8
15 09:56 Calm 16.09 Fair CLR 10 4.4 10 1.7 68% 76.96 1026.1
15 08:56 Calm 16.09 Fair CLR 8.3 4.4 77% 76.99 1026.5
15 07:56 S 7 16.09 Fair CLR 7.2 3.9 80% 6 76.94 1026.0
15 06:56 Calm 16.09 Fair CLR 5 2.8 86% 76.96 1026.2
15 05:56 Calm 16.09 Fair CLR 2.8 1.7 93% 76.96 1026.3
15 03:56 SE 6 16.09 Fair CLR 2.8 2.2 11.7 2.8 96% 76.94 1026.0
15 02:56 E 6 16.09 Fair CLR 3.3 2.2 93% 76.94 1025.9
15 01:56 Calm 16.09 Fair CLR 5.6 3.9 89% 76.94 1025.9
15 00:56 W 6 16.09 Fair CLR 7.2 3.9 80% 76.91 1025.7
14 23:56 NW 9 16.09 Fair CLR 10 4.4 68% 9 76.89 1025.2
14 22:56 N 13 16.09 Fair CLR 11.1 4.4 64% 76.86 1024.9
14 21:56 N 15 16.09 Fair CLR 11.7 4.4 13.9 11.7 61% 76.84 1024.6
14 20:56 N 19 16.09 Fair CLR 11.7 5 64% 76.81 1024.3
14 19:56 N 19 16.09 Fair CLR 12.8 4.4 57% 76.81 1024.0
14 18:56 N 20 16.09 Fair CLR 13.9 5 55% 76.81 1024.1
14 17:56 N 17 16.09 Fair CLR 13.3 4.4 55% 76.81 1024.1
14 16:56 N 13 16.09 Fair CLR 13.3 4.4 55% 76.81 1024.3
14 15:56 N 15 16.09 A Few Clouds FEW038 13.3 4.4 13.3 8.9 55% 76.84 1024.6
14 14:56 Vrbl 6 16.09 Mostly Cloudy BKN040 12.8 3.9 55% 76.86 1024.8
14 13:56 Vrbl 6 16.09 Mostly Cloudy BKN037 11.7 3.9 59% 76.89 1025.1
14 12:56 N 9 16.09 Overcast OVC035 10 3.9 66% 9 76.89 1025.2
14 11:56 NW 22 16.09 Overcast OVC031 10 3.3 63% 7 76.89 1025.3
14 10:56 SW 7 16.09 Overcast OVC033 10 2.8 61% 9 76.91 1025.4
14 09:56 W 7 16.09 Overcast OVC033 9.4 2.2 9.4 3.3 61% 9 76.89 1025.3
14 08:56 W 7 16.09 Overcast OVC039 8.9 2.8 66% 8 76.89 1025.2
14 07:56 SW 11 16.09 Fair CLR 8.3 3.3 71% 7 76.89 1025.1
14 06:56 SE 6 16.09 Fair CLR 5 2.8 86% 76.86 1024.9
14 05:56 E 9 16.09 Fair CLR 3.3 2.2 93% 1 76.84 1024.5
14 04:56 E 9 16.09 Fair CLR 3.9 2.8 93% 2 76.84 1024.4
14 03:56 E 6 16.09 Mostly Cloudy BKN060 5 2.8 15 5 86% 76.81 1024.2
14 02:56 Vrbl 6 16.09 Fair CLR 5.6 3.3 85% 76.78 1023.7
14 01:56 S 7 16.09 Fair CLR 10.6 1.1 52% 76.76 1023.4
14 00:56 S 11 16.09 Fair CLR 11.7 3.9 59% 76.71 1022.9
13 23:56 S 13 16.09 Fair CLR 12.8 5.6 62% 76.68 1022.4
13 22:56 SW 22 16.09 Overcast OVC039 14.4 5.6 56% 76.66 1022.2
13 21:56 SE 7 16.09 Fair CLR 14.4 7.2 15.6 12.2 62% 76.66 1022.1
13 20:56 S 9 16.09 Overcast BKN035 OVC041 14.4 6.7 60% 76.66 1022.2
13 19:56 SE 7 16.09 Overcast OVC043 14.4 7.2 62% 76.66 1022.2
13 18:56 SE 11 16.09 Overcast OVC041 14.4 7.2 62% 76.66 1022.3
13 17:56 E 7 16.09 Overcast BKN041 OVC049 14.4 6.1 58% 76.68 1022.5
13 16:56 Vrbl 6 16.09 Overcast OVC041 12.8 5.6 62% 76.71 1022.9
13 15:56 S 9 16.09 Overcast FEW043 OVC050 12.2 5 12.2 6.7 62% 76.73 1023.0
13 14:56 Vrbl 7 16.09 Overcast OVC046 11.1 3.9 61% 76.73 1023.2
13 13:56 Calm 16.09 Overcast OVC044 10 3.3 63% 76.76 1023.4
13 12:56 Calm 16.09 Overcast OVC040 8.3 2.8 69% 76.78 1023.7
13 11:56 Calm 16.09 Overcast SCT020 OVC036 7.2 2.2 71% 76.78 1023.8
13 10:56 Calm 16.09 Overcast OVC038 7.2 2.2 71% 76.78 1023.8
13 09:56 Calm 16.09 Overcast OVC038 6.7 1.7 6.7 5 71% 76.76 1023.6
13 08:56 Calm 16.09 Overcast OVC038 6.1 1.7 74% 76.76 1023.4
13 07:56 NW 6 16.09 Overcast FEW025 OVC038 5.6 1.1 73% 76.73 1023.2
13 06:56 N 7 16.09 Overcast OVC038 5 1.1 76% 4 76.71 1022.8
13 05:56 NW 9 16.09 Overcast OVC038 5 1.1 76% 3 76.68 1022.4
13 04:56 NW 7 16.09 Overcast OVC034 5.6 1.1 73% 4 76.66 1022.1
Date Time (akdt) Wind (kph) Vis. (km) Weather Sky Cond. Air Dwpt Max. Min. Relative Humidity Wind Chill (°C) Heat Index (°C) altimeter (cm) sea level (mb) 1 hr 3 hr 6 hr
6 hour
Temperature (ºC) Pressure Precipitation (cm)